CW2972 Weather Reports


Display with metric or nautical units.
time (UTC)temp
F
wind
direction
speed
MPH
gust
MPH
rain 1hr
in
rain 24hr
in
rain mn
in
humidity
%
barometer
mb
20260508220420 72 216 1.0 3.0 0.00 0.01 0.01 46 1012.3
20260508220241 72 222 1.0 3.0 0.00 0.01 0.01 46 1012.3
20260508220020 72 223 1.0 3.0 0.00 0.01 0.01 46 1012.3
20260508215841 72 220 1.0 3.0 0.00 0.01 0.01 46 1012.4
20260508215641 72 212 1.0 3.0 0.00 0.01 0.01 45 1012.3
20260508215420 72 209 1.0 2.0 0.00 0.01 0.01 45 1012.3
20260508215220 72 199 0.0 2.0 0.00 0.01 0.01 48 1012.3
20260508215020 72 189 0.0 2.0 0.00 0.01 0.01 46 1012.3
20260508214820 72 192 0.0 2.0 0.00 0.01 0.01 45 1012.3
20260508214620 72 198 1.0 2.0 0.00 0.01 0.01 46 1012.3
20260508214420 72 205 1.0 2.0 0.00 0.01 0.01 45 1012.4
20260508214220 72 212 1.0 2.0 0.00 0.01 0.01 46 1012.4
20260508214041 72 214 1.0 2.0 0.00 0.01 0.01 45 1012.3
20260508213820 72 213 0.0 2.0 0.00 0.01 0.01 43 1012.4
20260508213620 72 211 0.0 2.0 0.00 0.01 0.01 45 1012.4
20260508213420 72 208 0.0 2.0 0.00 0.01 0.01 45 1012.5
20260508213220 72 207 0.0 2.0 0.00 0.01 0.01 46 1012.5
20260508213020 72 209 0.0 2.0 0.00 0.01 0.01 46 1012.6
20260508212841 72 213 1.0 3.0 0.00 0.01 0.01 47 1012.6
20260508212620 72 219 1.0 3.0 0.00 0.01 0.01 47 1012.6
20260508212420 72 221 1.0 3.0 0.00 0.01 0.01 45 1012.5
20260508212241 72 220 1.0 3.0 0.00 0.01 0.01 46 1012.5
20260508212041 72 218 1.0 3.0 0.00 0.01 0.01 46 1012.6
20260508211821 72 218 1.0 3.0 0.00 0.01 0.01 47 1012.6
20260508211620 72 227 1.0 3.0 0.00 0.01 0.01 47 1012.7
20260508211420 72 227 1.0 3.0 0.00 0.01 0.01 46 1012.7
20260508211221 72 217 1.0 3.0 0.00 0.01 0.01 46 1012.7
20260508211020 72 207 1.0 3.0 0.00 0.01 0.01 47 1012.7
20260508210820 72 206 1.0 3.0 0.00 0.01 0.01 45 1012.7
20260508210641 72 197 1.0 3.0 0.00 0.01 0.01 48 1012.8
20260508210420 72 198 1.0 2.0 0.00 0.01 0.01 46 1012.8
20260508210220 72 212 1.0 2.0 0.00 0.01 0.01 48 1012.8
20260508210020 72 232 1.0 2.0 0.00 0.01 0.01 48 1012.9
20260508205820 72 233 1.0 2.0 0.00 0.01 0.01 46 1012.9
20260508205620 72 229 1.0 3.0 0.00 0.01 0.01 48 1012.9
20260508205420 72 215 1.0 3.0 0.00 0.01 0.01 47 1012.9
20260508205220 72 218 1.0 3.0 0.00 0.01 0.01 47 1013.0
20260508205020 72 218 1.0 4.0 0.00 0.01 0.01 45 1013.0
20260508204820 72 215 1.0 4.0 0.00 0.01 0.01 46 1013.0
20260508204641 72 211 0.0 4.0 0.00 0.01 0.01 47 1013.0
20260508204420 72 211 0.0 4.0 0.00 0.01 0.01 47 1013.0
20260508204220 72 202 0.0 4.0 0.00 0.01 0.01 46 1013.0
20260508204020 72 197 1.0 2.0 0.00 0.01 0.01 47 1013.1
20260508203841 72 196 1.0 3.0 0.00 0.01 0.01 46 1013.1
20260508203641 72 226 1.0 3.0 0.00 0.01 0.01 46 1013.2
20260508203420 72 223 1.0 3.0 0.00 0.01 0.01 47 1013.2
20260508203220 72 223 1.0 3.0 0.00 0.01 0.01 48 1013.2
20260508203041 72 221 1.0 4.0 0.00 0.01 0.01 45 1013.3
20260508202820 72 212 1.0 4.0 0.00 0.01 0.01 46 1013.2
20260508202620 72 205 1.0 4.0 0.00 0.01 0.01 46 1013.3
20260508202421 72 207 1.0 4.0 0.00 0.01 0.01 46 1013.3
20260508202221 72 212 1.0 4.0 0.00 0.01 0.01 47 1013.3
20260508202020 72 221 1.0 3.0 0.00 0.01 0.01 46 1013.3
20260508201820 72 229 1.0 3.0 0.00 0.01 0.01 47 1013.3
20260508201620 72 231 1.0 5.0 0.00 0.01 0.01 46 1013.4
20260508201420 72 229 1.0 5.0 0.00 0.01 0.01 48 1013.5
20260508201241 72 224 1.0 5.0 0.00 0.01 0.01 45 1013.5
20260508201020 72 220 1.0 5.0 0.00 0.01 0.01 47 1013.6
20260508200820 72 215 1.0 5.0 0.00 0.01 0.01 46 1013.6
20260508200620 72 209 1.0 3.0 0.00 0.01 0.01 46 1013.6
20260508200420 72 205 1.0 3.0 0.00 0.01 0.01 45 1013.6
20260508200241 73 195 0.0 2.0 0.00 0.01 0.01 47 1013.7
20260508200020 72 188 0.0 2.0 0.00 0.01 0.01 47 1013.7
20260508195841 72 202 0.0 2.0 0.00 0.01 0.01 47 1013.7
20260508195620 72 230 0.0 2.0 0.00 0.01 0.01 48 1013.8
20260508195420 72 243 0.0 2.0 0.00 0.01 0.01 50 1013.8
20260508195220 72 246 0.0 2.0 0.00 0.01 0.01 49 1013.8
20260508195020 72 243 0.0 2.0 0.00 0.02 0.01 47 1013.9
20260508194820 72 238 1.0 2.0 0.00 0.02 0.01 48 1013.9
20260508194641 72 227 1.0 3.0 0.00 0.02 0.01 51 1014.0
20260508194420 72 216 1.0 4.0 0.00 0.02 0.01 51 1014.0
20260508194220 72 219 1.0 4.0 0.00 0.02 0.01 48 1014.0
20260508194020 72 211 1.0 4.0 0.00 0.02 0.01 47 1014.1
20260508193841 72 209 1.0 4.0 0.00 0.02 0.01 45 1014.2
20260508193641 72 208 1.0 4.0 0.00 0.02 0.01 45 1014.2
20260508193420 72 205 1.0 4.0 0.00 0.02 0.01 46 1014.2
20260508193220 72 199 1.0 3.0 0.00 0.02 0.01 49 1014.2
20260508193020 72 214 1.0 2.0 0.00 0.02 0.01 47 1014.2
20260508192820 72 216 1.0 2.0 0.00 0.02 0.01 48 1014.3
20260508192620 71 219 1.0 3.0 0.00 0.02 0.01 48 1014.2
20260508192420 71 217 1.0 3.0 0.00 0.02 0.01 48 1014.2
20260508192220 71 214 1.0 3.0 0.00 0.02 0.01 49 1014.4
20260508192041 71 212 1.0 4.0 0.00 0.02 0.01 48 1014.4
20260508191820 71 214 1.0 5.0 0.00 0.02 0.01 48 1014.4
20260508191620 71 215 1.0 5.0 0.00 0.02 0.01 48 1014.5
20260508191420 71 213 1.0 5.0 0.00 0.02 0.01 47 1014.5
20260508191241 71 202 1.0 5.0 0.00 0.02 0.01 46 1014.5
20260508191041 71 200 1.0 5.0 0.00 0.02 0.01 48 1014.5
20260508190842 71 198 1.0 5.0 0.00 0.02 0.01 49 1014.6
20260508190620 71 185 1.0 4.0 0.00 0.02 0.01 49 1014.6
20260508190420 71 184 1.0 4.0 0.00 0.02 0.01 48 1014.6
20260508190220 71 190 2.0 4.0 0.00 0.02 0.01 50 1014.6
20260508190041 71 199 2.0 4.0 0.00 0.02 0.01 50 1014.7
20260508185820 70 193 2.0 4.0 0.00 0.02 0.01 50 1014.7
20260508185620 70 173 2.0 6.0 0.00 0.02 0.01 53 1014.7
20260508185420 70 173 2.0 6.0 0.00 0.02 0.01 49 1014.7
20260508185241 70 175 2.0 6.0 0.00 0.02 0.01 49 1014.7
20260508185020 70 168 2.0 6.0 0.00 0.02 0.01 49 1014.8
20260508184841 70 172 2.0 6.0 0.00 0.02 0.01 49 1014.7
20260508184620 70 190 2.0 4.0 0.00 0.02 0.01 50 1014.8
20260508184420 70 195 1.0 4.0 0.00 0.02 0.01 48 1014.8
20260508184220 70 203 1.0 4.0 0.00 0.02 0.01 48 1014.9
20260508184021 70 204 1.0 4.0 0.00 0.02 0.01 50 1014.9
20260508183820 70 209 1.0 4.0 0.00 0.02 0.01 49 1014.9
20260508183620 70 204 1.0 4.0 0.00 0.02 0.01 49 1015.0
20260508183420 70 209 1.0 4.0 0.00 0.02 0.01 50 1015.1
20260508183220 70 205 1.0 4.0 0.00 0.02 0.01 48 1015.1
20260508183020 70 199 1.0 4.0 0.00 0.02 0.01 50 1015.1
20260508182820 70 198 1.0 4.0 0.00 0.02 0.01 49 1015.1
20260508182620 70 214 1.0 4.0 0.00 0.02 0.01 51 1015.1
20260508182420 70 213 1.0 4.0 0.00 0.02 0.01 49 1015.1
20260508182220 70 214 1.0 4.0 0.00 0.02 0.01 48 1015.2
20260508182020 70 219 1.0 4.0 0.00 0.02 0.01 49 1015.2
20260508181821 70 220 1.0 4.0 0.00 0.02 0.01 47 1015.2
20260508181620 70 206 1.0 4.0 0.00 0.02 0.01 48 1015.2
20260508181420 70 205 1.0 3.0 0.00 0.02 0.01 47 1015.2
20260508181221 70 200 1.0 3.0 0.00 0.02 0.01 46 1015.3
20260508181020 70 183 1.0 3.0 0.00 0.02 0.01 48 1015.3
20260508180820 70 177 1.0 3.0 0.00 0.02 0.01 46 1015.3
20260508180641 70 180 1.0 4.0 0.00 0.02 0.01 49 1015.4
20260508180420 70 186 1.0 4.0 0.00 0.02 0.01 48 1015.4
20260508180220 70 197 1.0 4.0 0.00 0.02 0.01 48 1015.4
20260508180020 70 194 1.0 4.0 0.00 0.02 0.01 48 1015.5
20260508175820 70 196 1.0 4.0 0.00 0.02 0.01 48 1015.5
20260508175620 70 207 1.0 4.0 0.00 0.02 0.01 50 1015.5
20260508175441 70 205 1.0 4.0 0.00 0.02 0.01 48 1015.5
20260508175220 70 196 1.0 4.0 0.00 0.02 0.01 49 1015.5
20260508175020 70 200 1.0 4.0 0.00 0.02 0.01 48 1015.6
20260508174841 70 206 1.0 4.0 0.00 0.02 0.01 48 1015.6
20260508174621 70 191 1.0 3.0 0.00 0.02 0.01 47 1015.6
20260508174420 70 169 1.0 3.0 0.00 0.02 0.01 45 1015.6
20260508174241 70 170 1.0 3.0 0.00 0.02 0.01 48 1015.7
20260508174020 70 173 1.0 3.0 0.00 0.02 0.01 47 1015.7
20260508173820 70 164 1.0 3.0 0.00 0.02 0.01 48 1015.7
20260508173620 70 169 1.0 3.0 0.00 0.02 0.01 46 1015.8
20260508173420 70 168 1.0 3.0 0.00 0.02 0.01 48 1015.8
20260508173241 70 165 1.0 3.0 0.00 0.02 0.01 48 1015.8
20260508173020 70 168 1.0 3.0 0.00 0.03 0.01 47 1015.9
20260508172820 70 170 1.0 3.0 0.00 0.03 0.01 47 1016.0
20260508172620 70 153 2.0 3.0 0.00 0.03 0.01 48 1016.0
20260508172420 70 163 2.0 3.0 0.00 0.03 0.01 49 1016.0
20260508172220 70 164 2.0 3.0 0.00 0.03 0.01 49 1016.1
20260508172020 70 157 2.0 4.0 0.00 0.03 0.01 47 1016.1
20260508171820 70 154 1.0 4.0 0.00 0.03 0.01 48 1016.0
20260508171643 71 160 1.0 4.0 0.00 0.03 0.01 48 1016.1
20260508171420 71 158 1.0 4.0 0.00 0.03 0.01 48 1016.1
20260508171220 71 163 1.0 4.0 0.00 0.03 0.01 47 1016.2
20260508171041 71 173 1.0 3.0 0.00 0.03 0.01 46 1016.3
20260508170820 71 177 1.0 3.0 0.00 0.03 0.01 48 1016.4
20260508170620 71 182 1.0 3.0 0.00 0.03 0.01 47 1016.4
20260508170420 71 191 1.0 3.0 0.00 0.03 0.01 47 1016.5
20260508170220 71 197 1.0 3.0 0.00 0.03 0.01 47 1016.5
20260508170020 71 201 1.0 2.0 0.00 0.03 0.01 46 1016.6
20260508165820 71 211 1.0 2.0 0.00 0.03 0.01 47 1016.6
20260508165641 71 219 1.0 2.0 0.00 0.03 0.01 46 1016.6
20260508165421 72 196 1.0 3.0 0.00 0.03 0.01 47 1016.6
20260508165220 72 179 1.0 3.0 0.00 0.03 0.01 46 1016.7
20260508165020 72 176 1.0 3.0 0.00 0.03 0.01 45 1016.8
20260508164820 72 173 1.0 3.0 0.00 0.03 0.01 46 1016.9
20260508164620 72 168 1.0 3.0 0.00 0.03 0.01 47 1016.9
20260508164420 72 178 1.0 3.0 0.00 0.03 0.01 48 1016.9
20260508164220 72 193 1.0 3.0 0.00 0.03 0.01 47 1017.0
20260508164041 72 196 1.0 3.0 0.00 0.03 0.01 46 1017.0
20260508163842 72 204 1.0 3.0 0.00 0.03 0.01 45 1017.1
20260508163620 72 204 1.0 2.0 0.00 0.03 0.01 45 1017.1
20260508163420 72 189 1.0 2.0 0.00 0.03 0.01 47 1017.2
20260508163220 72 165 1.0 3.0 0.00 0.03 0.01 47 1017.2
20260508163020 72 156 1.0 3.0 0.00 0.03 0.01 48 1017.2
20260508162820 72 154 1.0 3.0 0.00 0.03 0.01 48 1017.3
20260508162641 72 152 1.0 3.0 0.00 0.03 0.01 47 1017.3
20260508162420 72 159 1.0 3.0 0.00 0.03 0.01 48 1017.4
20260508162220 72 172 1.0 2.0 0.00 0.04 0.01 47 1017.4
20260508162020 72 195 1.0 2.0 0.00 0.04 0.01 48 1017.4
20260508161841 72 155 1.0 3.0 0.00 0.04 0.01 49 1017.5
20260508161641 71 147 1.0 3.0 0.00 0.04 0.01 49 1017.5
20260508161442 71 149 1.0 3.0 0.00 0.04 0.01 53 1017.5
20260508161220 71 151 1.0 3.0 0.00 0.04 0.01 51 1017.5
20260508161020 71 159 1.0 3.0 0.00 0.04 0.01 49 1017.5
20260508160820 72 191 1.0 3.0 0.00 0.04 0.01 49 1017.5
20260508160641 71 199 1.0 3.0 0.00 0.04 0.01 49 1017.6
20260508160420 71 194 1.0 3.0 0.00 0.04 0.01 49 1017.6
20260508160220 71 177 1.0 3.0 0.00 0.04 0.01 49 1017.6
20260508160020 71 165 1.0 3.0 0.00 0.04 0.01 50 1017.7
20260508155820 71 171 1.0 3.0 0.00 0.04 0.01 50 1017.6
20260508155620 71 170 1.0 3.0 0.00 0.04 0.01 51 1017.7
20260508155420 71 171 1.0 3.0 0.00 0.04 0.01 50 1017.7
20260508155220 71 178 1.0 3.0 0.00 0.04 0.01 49 1017.7
20260508155020 71 190 1.0 3.0 0.00 0.04 0.01 49 1017.7
20260508154820 71 181 1.0 3.0 0.00 0.04 0.01 48 1017.7
20260508154620 71 186 1.0 3.0 0.00 0.04 0.01 50 1017.7
20260508154420 71 182 1.0 3.0 0.00 0.04 0.01 50 1017.7
20260508154220 71 175 1.0 3.0 0.00 0.04 0.01 53 1017.7
20260508154020 70 164 1.0 3.0 0.00 0.04 0.01 52 1017.7
20260508153820 70 163 1.0 3.0 0.00 0.04 0.01 51 1017.8
20260508153642 70 158 1.0 5.0 0.00 0.04 0.01 50 1017.8
20260508153420 70 158 1.0 5.0 0.00 0.04 0.01 53 1017.8
20260508153221 70 159 1.0 5.0 0.00 0.04 0.01 53 1017.9
20260508153020 70 164 1.0 5.0 0.00 0.04 0.01 51 1017.8
20260508152841 71 167 1.0 5.0 0.00 0.04 0.01 51 1017.9
20260508152620 71 170 1.0 3.0 0.00 0.04 0.01 54 1017.9
20260508152420 71 176 1.0 3.0 0.00 0.04 0.01 52 1017.9
20260508152220 71 179 1.0 3.0 0.00 0.04 0.01 52 1017.9
20260508152020 71 182 1.0 3.0 0.00 0.04 0.01 52 1017.9
20260508151820 71 184 1.0 3.0 0.00 0.04 0.01 51 1017.9
20260508151641 71 184 1.0 3.0 0.00 0.04 0.01 53 1017.9
20260508151421 71 176 1.0 2.0 0.00 0.04 0.01 54 1017.9
20260508151220 71 170 1.0 2.0 0.00 0.04 0.01 55 1017.9
20260508151020 71 166 1.0 2.0 0.00 0.04 0.01 53 1017.9
20260508150820 71 158 1.0 2.0 0.00 0.04 0.01 53 1017.9
20260508150641 70 161 1.0 2.0 0.00 0.04 0.01 55 1017.9
20260508150420 70 167 1.0 2.0 0.00 0.04 0.01 56 1017.9
20260508150220 70 164 1.0 2.0 0.00 0.04 0.01 56 1017.9
20260508150020 70 162 1.0 2.0 0.00 0.04 0.01 53 1017.9
20260508145820 70 172 1.0 2.0 0.00 0.04 0.01 54 1018.0
20260508145620 70 173 1.0 2.0 0.00 0.04 0.01 53 1018.0
20260508145420 70 181 1.0 2.0 0.00 0.05 0.01 53 1018.0
20260508145220 70 190 1.0 2.0 0.00 0.05 0.01 53 1018.0
20260508145020 70 202 1.0 2.0 0.00 0.05 0.01 53 1018.1
20260508144820 69 210 1.0 2.0 0.00 0.05 0.01 53 1018.0
20260508144620 69 213 1.0 3.0 0.00 0.05 0.01 54 1018.0
20260508144420 69 215 1.0 3.0 0.00 0.05 0.01 54 1018.1
20260508144220 69 215 1.0 3.0 0.00 0.05 0.01 55 1018.1
20260508144020 69 210 1.0 3.0 0.00 0.05 0.01 54 1018.1
20260508143841 69 205 1.0 3.0 0.00 0.05 0.01 54 1018.1
20260508143620 69 181 1.0 2.0 0.00 0.05 0.01 56 1018.1
20260508143441 69 157 1.0 2.0 0.00 0.05 0.01 58 1018.2
20260508143220 68 159 1.0 2.0 0.00 0.05 0.01 58 1018.2
20260508143020 68 159 1.0 2.0 0.00 0.05 0.01 57 1018.2
20260508142841 68 160 1.0 2.0 0.00 0.05 0.01 57 1018.2
20260508142620 68 160 1.0 3.0 0.00 0.05 0.01 55 1018.3
20260508142420 68 166 1.0 3.0 0.00 0.05 0.01 55 1018.3
20260508142220 68 170 1.0 3.0 0.00 0.05 0.01 57 1018.3
20260508142020 68 166 1.0 3.0 0.00 0.05 0.01 56 1018.3
20260508141841 68 165 1.0 3.0 0.00 0.05 0.01 55 1018.3
20260508141621 68 167 1.0 2.0 0.00 0.05 0.01 55 1018.3
20260508141420 68 171 1.0 2.0 0.00 0.05 0.01 57 1018.3
20260508141220 67 184 1.0 2.0 0.00 0.05 0.01 57 1018.3
20260508141020 67 194 1.0 2.0 0.00 0.05 0.01 58 1018.2
20260508140820 67 190 1.0 2.0 0.00 0.05 0.01 59 1018.2
20260508140641 66 180 1.0 2.0 0.00 0.05 0.01 59 1018.2
20260508140420 66 173 1.0 2.0 0.00 0.05 0.01 58 1018.3
20260508140220 66 160 1.0 2.0 0.00 0.05 0.01 59 1018.3
20260508140041 66 161 1.0 2.0 0.00 0.05 0.01 58 1018.3
20260508135820 66 167 1.0 2.0 0.01 0.05 0.01 59 1018.3
20260508135641 66 165 1.0 2.0 0.01 0.05 0.01 60 1018.3
20260508135420 66 164 1.0 2.0 0.01 0.05 0.01 59 1018.4
20260508135220 66 169 1.0 2.0 0.01 0.05 0.01 60 1018.4
20260508135041 66 168 1.0 2.0 0.01 0.05 0.01 60 1018.4
20260508134820 66 164 0.0 2.0 0.01 0.05 0.01 59 1018.5
20260508134620 66 168 0.0 2.0 0.01 0.05 0.01 60 1018.5
20260508134420 66 172 0.0 2.0 0.01 0.05 0.01 62 1018.4
20260508134220 66 158 0.0 2.0 0.01 0.05 0.01 64 1018.4
20260508134020 66 158 0.0 2.0 0.01 0.05 0.01 64 1018.4
20260508133842 65 155 0.0 1.0 0.01 0.05 0.01 66 1018.4
20260508133620 64 153 0.0 1.0 0.01 0.05 0.01 68 1018.4
20260508133441 64 151 0.0 1.0 0.01 0.05 0.01 68 1018.4
20260508133220 63 148 0.0 1.0 0.01 0.05 0.01 69 1018.4
20260508133020 62 148 0.0 1.0 0.01 0.05 0.01 70 1018.4
20260508132820 62 153 0.0 2.0 0.01 0.05 0.01 70 1018.5
20260508132620 61 153 0.0 2.0 0.01 0.05 0.01 69 1018.4
20260508132420 61 153 0.0 2.0 0.01 0.05 0.01 70 1018.5
20260508132220 61 163 0.0 2.0 0.01 0.05 0.01 73 1018.4
20260508132020 60 163 0.0 2.0 0.01 0.05 0.01 73 1018.5
20260508131841 59 196 0.0 1.0 0.01 0.05 0.01 77 1018.4
20260508131620 58 196 0.0 1.0 0.01 0.05 0.01 81 1018.5
20260508131421 57 196 0.0 1.0 0.01 0.05 0.01 81 1018.4
20260508131220 57 196 0.0 1.0 0.01 0.05 0.01 83 1018.4
20260508131020 56 196 0.0 1.0 0.01 0.05 0.01 85 1018.4
20260508130820 55 196 0.0 1.0 0.01 0.05 0.01 88 1018.4
20260508130620 54 196 0.0 1.0 0.01 0.05 0.01 91 1018.5
20260508130420 53 196 0.0 1.0 0.01 0.05 0.01 92 1018.4
20260508130221 53 196 0.0 1.0 0.01 0.05 0.01 92 1018.5
20260508130020 52 196 0.0 1.0 0.01 0.05 0.01 93 1018.5
20260508125820 51 196 0.0 1.0 0.00 0.04 0.00 94 1018.5
20260508125621 50 196 0.0 1.0 0.00 0.04 0.00 95 1018.5
20260508125420 49 0 0.0 0.0 0.00 0.04 0.00 96 1018.5
20260508125220 49 0 0.0 0.0 0.00 0.04 0.00 96 1018.4
20260508125021 48 0 0.0 0.0 0.00 0.04 0.00 96 1018.4
20260508124820 48 0 0.0 0.0 0.00 0.05 0.00 96 1018.4
20260508124620 47 0 0.0 0.0 0.00 0.05 0.00 97 1018.4
20260508124420 47 0 0.0 0.0 0.00 0.05 0.00 97 1018.4
20260508124220 47 0 0.0 0.0 0.00 0.05 0.00 97 1018.4
20260508124041 46 0 0.0 0.0 0.00 0.05 0.00 97 1018.4
20260508123820 46 0 0.0 0.0 0.00 0.05 0.00 98 1018.4
20260508123620 46 0 0.0 0.0 0.00 0.05 0.00 98 1018.4
20260508123420 46 0 0.0 0.0 0.00 0.05 0.00 98 1018.3
20260508123221 46 0 0.0 0.0 0.00 0.05 0.00 98 1018.3
20260508123041 45 0 0.0 0.0 0.00 0.05 0.00 98 1018.3
20260508122841 45 0 0.0 0.0 0.00 0.05 0.00 98 1018.3
20260508122620 45 0 0.0 0.0 0.00 0.05 0.00 98 1018.3
20260508122420 45 0 0.0 0.0 0.00 0.05 0.00 98 1018.3
20260508122220 44 0 0.0 0.0 0.00 0.05 0.00 98 1018.3
20260508122020 44 0 0.0 0.0 0.00 0.05 0.00 98 1018.2
20260508121820 44 0 0.0 0.0 0.00 0.05 0.00 98 1018.3
20260508121641 44 0 0.0 0.0 0.00 0.05 0.00 98 1018.2
20260508121420 44 0 0.0 0.0 0.00 0.05 0.00 98 1018.2
20260508121221 44 0 0.0 0.0 0.00 0.05 0.00 98 1018.2
20260508121020 43 0 0.0 0.0 0.00 0.05 0.00 98 1018.1
20260508120820 43 0 0.0 0.0 0.00 0.05 0.00 98 1018.2
20260508120620 43 0 0.0 0.0 0.00 0.05 0.00 97 1018.2
20260508120420 43 0 0.0 0.0 0.00 0.05 0.00 97 1018.2
20260508120220 43 0 0.0 0.0 0.00 0.05 0.00 97 1018.2
20260508120020 43 0 0.0 0.0 0.00 0.05 0.00 97 1018.2
20260508115820 43 0 0.0 0.0 0.00 0.05 0.00 97 1018.2
20260508115620 42 0 0.0 0.0 0.00 0.05 0.00 97 1018.2
20260508115441 42 0 0.0 0.0 0.00 0.05 0.00 97 1018.2
20260508115220 42 0 0.0 0.0 0.00 0.05 0.00 97 1018.1
20260508115020 42 0 0.0 0.0 0.00 0.05 0.00 97 1018.1
20260508114820 42 0 0.0 0.0 0.00 0.05 0.00 97 1018.0
20260508114620 42 0 0.0 0.0 0.00 0.05 0.00 97 1018.0
20260508114420 42 0 0.0 0.0 0.00 0.05 0.00 97 1017.9
20260508114221 42 0 0.0 0.0 0.00 0.05 0.00 97 1017.9
20260508114041 41 0 0.0 0.0 0.00 0.05 0.00 97 1017.9
20260508113820 41 0 0.0 0.0 0.00 0.05 0.00 97 1017.9
20260508113620 41 0 0.0 0.0 0.00 0.05 0.00 97 1017.9
20260508113420 41 0 0.0 0.0 0.00 0.05 0.00 97 1017.8
20260508113220 41 0 0.0 0.0 0.00 0.05 0.00 97 1017.8
20260508113021 41 0 0.0 0.0 0.00 0.05 0.00 97 1017.8
20260508112820 41 0 0.0 0.0 0.00 0.05 0.00 97 1017.7
20260508112620 41 0 0.0 0.0 0.00 0.05 0.00 97 1017.7
20260508112441 41 0 0.0 0.0 0.00 0.05 0.00 97 1017.7
20260508112220 41 0 0.0 0.0 0.00 0.05 0.00 96 1017.8
20260508112020 41 0 0.0 0.0 0.00 0.05 0.00 96 1017.7
20260508111820 41 0 0.0 0.0 0.00 0.05 0.00 96 1017.7
20260508111641 41 0 0.0 0.0 0.00 0.05 0.00 96 1017.7
20260508111420 40 0 0.0 0.0 0.00 0.05 0.00 96 1017.7
20260508111220 40 0 0.0 0.0 0.00 0.05 0.00 96 1017.7
20260508111020 40 0 0.0 0.0 0.00 0.05 0.00 96 1017.7
20260508110820 40 0 0.0 0.0 0.00 0.05 0.00 96 1017.7
20260508110622 40 0 0.0 0.0 0.00 0.05 0.00 96 1017.6
20260508110420 40 0 0.0 0.0 0.00 0.05 0.00 96 1017.6
20260508110220 40 0 0.0 0.0 0.00 0.05 0.00 96 1017.6
20260508110020 40 0 0.0 0.0 0.00 0.05 0.00 96 1017.6
20260508105820 40 0 0.0 0.0 0.00 0.05 0.00 96 1017.5
20260508105620 40 0 0.0 0.0 0.00 0.05 0.00 96 1017.5
20260508105420 40 0 0.0 0.0 0.00 0.05 0.00 96 1017.5
20260508105220 40 0 0.0 0.0 0.00 0.05 0.00 96 1017.5
20260508105020 40 0 0.0 0.0 0.00 0.05 0.00 96 1017.5
20260508104820 40 0 0.0 0.0 0.00 0.05 0.00 96 1017.5
20260508104620 40 0 0.0 0.0 0.00 0.05 0.00 96 1017.4
20260508104420 41 0 0.0 0.0 0.00 0.05 0.00 96 1017.4
20260508104220 41 0 0.0 0.0 0.00 0.05 0.00 96 1017.4
20260508104020 41 0 0.0 0.0 0.00 0.05 0.00 96 1017.4
20260508103821 41 0 0.0 0.0 0.00 0.05 0.00 96 1017.4
20260508103620 41 0 0.0 0.0 0.00 0.05 0.00 96 1017.4
20260508103420 41 0 0.0 0.0 0.00 0.05 0.00 96 1017.4
20260508103221 41 0 0.0 0.0 0.00 0.05 0.00 96 1017.4
20260508103020 41 0 0.0 0.0 0.00 0.05 0.00 96 1017.4
20260508102820 41 0 0.0 0.0 0.00 0.05 0.00 96 1017.4
20260508102620 41 0 0.0 0.0 0.00 0.05 0.00 95 1017.4
20260508102420 41 0 0.0 0.0 0.00 0.05 0.00 96 1017.4
20260508102220 41 0 0.0 0.0 0.00 0.05 0.00 96 1017.4
20260508102041 41 0 0.0 0.0 0.00 0.05 0.00 96 1017.4
20260508101820 41 0 0.0 0.0 0.00 0.05 0.00 96 1017.4
20260508101621 41 0 0.0 0.0 0.00 0.05 0.00 96 1017.4
20260508101420 41 0 0.0 0.0 0.00 0.05 0.00 96 1017.4
20260508101221 41 0 0.0 0.0 0.00 0.05 0.00 96 1017.4
20260508101020 41 0 0.0 0.0 0.00 0.05 0.00 96 1017.4
20260508100820 41 0 0.0 0.0 0.00 0.06 0.00 96 1017.3
20260508100620 41 0 0.0 0.0 0.00 0.06 0.00 96 1017.3
20260508100420 41 0 0.0 0.0 0.00 0.06 0.00 96 1017.3
20260508100243 41 0 0.0 0.0 0.00 0.06 0.00 96 1017.3
20260508100020 41 0 0.0 0.0 0.00 0.06 0.00 96 1017.3
20260508095822 40 0 0.0 0.0 0.00 0.06 0.00 95 1017.3
20260508095620 41 0 0.0 0.0 0.00 0.06 0.00 95 1017.3
20260508095420 41 0 0.0 0.0 0.00 0.06 0.00 95 1017.3
20260508095221 41 0 0.0 0.0 0.00 0.06 0.00 95 1017.2
20260508095021 41 0 0.0 0.0 0.00 0.06 0.00 95 1017.2
20260508094821 41 0 0.0 0.0 0.00 0.06 0.00 95 1017.2
20260508094621 41 0 0.0 0.0 0.00 0.06 0.00 95 1017.2
20260508094420 41 0 0.0 0.0 0.00 0.06 0.00 95 1017.2
20260508094221 41 0 0.0 0.0 0.00 0.06 0.00 95 1017.2
20260508094021 41 0 0.0 0.0 0.00 0.06 0.00 95 1017.3
20260508093820 41 0 0.0 0.0 0.00 0.06 0.00 95 1017.2
20260508093620 41 0 0.0 0.0 0.00 0.06 0.00 95 1017.2
20260508093441 41 0 0.0 0.0 0.00 0.06 0.00 95 1017.2
20260508093241 41 0 0.0 0.0 0.00 0.06 0.00 95 1017.2
20260508093020 41 0 0.0 0.0 0.00 0.06 0.00 95 1017.2
20260508092820 41 0 0.0 0.0 0.00 0.06 0.00 95 1017.3
20260508092641 41 0 0.0 0.0 0.00 0.06 0.00 95 1017.2
20260508092420 41 0 0.0 0.0 0.00 0.06 0.00 95 1017.2
20260508092220 41 0 0.0 0.0 0.00 0.06 0.00 95 1017.2
20260508092041 41 0 0.0 0.0 0.00 0.06 0.00 95 1017.2
20260508091820 41 0 0.0 0.0 0.00 0.06 0.00 95 1017.2
20260508091622 41 0 0.0 0.0 0.00 0.06 0.00 95 1017.2
20260508091442 41 0 0.0 0.0 0.00 0.06 0.00 95 1017.2
20260508091220 41 0 0.0 0.0 0.00 0.06 0.00 95 1017.2
20260508091043 41 0 0.0 0.0 0.00 0.06 0.00 95 1017.2
20260508090820 41 0 0.0 0.0 0.00 0.06 0.00 96 1017.2
20260508090620 41 0 0.0 0.0 0.00 0.06 0.00 96 1017.1
20260508090420 41 0 0.0 0.0 0.00 0.06 0.00 95 1017.2
20260508090220 41 0 0.0 0.0 0.00 0.06 0.00 95 1017.1
20260508090021 41 0 0.0 0.0 0.00 0.06 0.00 95 1017.2
20260508085820 41 0 0.0 0.0 0.00 0.06 0.00 95 1017.2
20260508085620 41 0 0.0 0.0 0.00 0.06 0.00 95 1017.2
20260508085441 41 0 0.0 0.0 0.00 0.06 0.00 95 1017.1
20260508085220 41 0 0.0 0.0 0.00 0.06 0.00 95 1017.2
20260508085020 41 0 0.0 0.0 0.00 0.06 0.00 95 1017.2
20260508084841 41 0 0.0 0.0 0.00 0.06 0.00 95 1017.2
20260508084620 41 0 0.0 0.0 0.00 0.06 0.00 95 1017.2
20260508084420 41 0 0.0 0.0 0.00 0.06 0.00 95 1017.2
20260508084220 41 0 0.0 0.0 0.00 0.06 0.00 95 1017.2
20260508084020 41 0 0.0 0.0 0.00 0.06 0.00 95 1017.2
20260508083820 41 0 0.0 0.0 0.00 0.06 0.00 95 1017.2
20260508083622 41 0 0.0 0.0 0.00 0.06 0.00 95 1017.3
20260508083420 41 0 0.0 0.0 0.00 0.06 0.00 94 1017.4
20260508083221 41 0 0.0 0.0 0.00 0.06 0.00 94 1017.4
20260508083043 41 0 0.0 0.0 0.00 0.06 0.00 94 1017.4
20260508082841 41 0 0.0 0.0 0.00 0.06 0.00 94 1017.3
20260508082620 41 0 0.0 0.0 0.00 0.06 0.00 94 1017.3
20260508082420 41 0 0.0 0.0 0.00 0.06 0.00 94 1017.4
20260508082220 41 0 0.0 0.0 0.00 0.06 0.00 94 1017.4
20260508082020 41 0 0.0 0.0 0.00 0.06 0.00 94 1017.3
20260508081820 41 0 0.0 0.0 0.00 0.06 0.00 94 1017.3
20260508081620 41 0 0.0 0.0 0.00 0.06 0.00 94 1017.4
20260508081421 42 0 0.0 0.0 0.00 0.06 0.00 94 1017.5
20260508081220 42 0 0.0 0.0 0.00 0.06 0.00 94 1017.6
20260508081020 42 0 0.0 0.0 0.00 0.06 0.00 94 1017.6
20260508080841 42 0 0.0 0.0 0.00 0.06 0.00 94 1017.6
20260508080620 42 0 0.0 0.0 0.00 0.06 0.00 94 1017.5
20260508080420 42 0 0.0 0.0 0.00 0.06 0.00 94 1017.5
20260508080220 42 0 0.0 0.0 0.00 0.06 0.00 94 1017.5
20260508080021 42 0 0.0 0.0 0.00 0.06 0.00 94 1017.5
20260508075820 42 0 0.0 0.0 0.00 0.06 0.00 94 1017.5
20260508075620 42 0 0.0 0.0 0.00 0.06 0.00 94 1017.5
20260508075420 42 0 0.0 0.0 0.00 0.06 0.00 94 1017.5
20260508075220 42 0 0.0 0.0 0.00 0.06 0.00 94 1017.5
20260508075020 42 0 0.0 0.0 0.00 0.06 0.00 94 1017.5
20260508074822 42 0 0.0 0.0 0.00 0.06 0.00 94 1017.5
20260508074620 42 0 0.0 0.0 0.00 0.06 0.00 94 1017.5
20260508074420 42 0 0.0 0.0 0.00 0.07 0.00 94 1017.6
20260508074220 42 0 0.0 0.0 0.00 0.07 0.00 94 1017.5
20260508074022 42 0 0.0 0.0 0.00 0.07 0.00 94 1017.5
20260508073841 42 0 0.0 0.0 0.00 0.07 0.00 94 1017.5
20260508073620 42 0 0.0 0.0 0.00 0.07 0.00 94 1017.6
20260508073421 42 0 0.0 0.0 0.00 0.07 0.00 94 1017.6
20260508073223 42 0 0.0 0.0 0.00 0.07 0.00 94 1017.6
20260508073020 42 0 0.0 0.0 0.00 0.07 0.00 94 1017.6
20260508072820 42 0 0.0 0.0 0.00 0.07 0.00 93 1017.6
20260508072642 42 0 0.0 0.0 0.00 0.07 0.00 93 1017.6
20260508072420 43 0 0.0 0.0 0.00 0.07 0.00 94 1017.6
20260508072220 43 0 0.0 0.0 0.00 0.07 0.00 94 1017.6
20260508072020 43 0 0.0 0.0 0.00 0.07 0.00 94 1017.6
20260508071820 43 0 0.0 0.0 0.00 0.07 0.00 94 1017.6
20260508071642 43 0 0.0 0.0 0.00 0.07 0.00 94 1017.5
20260508071420 43 0 0.0 0.0 0.00 0.07 0.00 94 1017.6
20260508071242 43 0 0.0 0.0 0.00 0.07 0.00 93 1017.5
20260508071020 43 0 0.0 0.0 0.00 0.07 0.00 93 1017.5
20260508070820 43 0 0.0 0.0 0.00 0.07 0.00 93 1017.5
20260508070620 43 0 0.0 0.0 0.00 0.07 0.00 93 1017.5
20260508070420 43 0 0.0 0.0 0.00 0.07 0.00 93 1017.5
20260508070221 43 0 0.0 0.0 0.00 0.07 0.00 93 1017.6
20260508070022 43 0 0.0 0.0 0.00 0.07 0.00 93 1017.6
20260508065821 43 0 0.0 0.0 0.00 0.07 0.00 93 1017.6
20260508065620 43 0 0.0 0.0 0.00 0.07 0.00 93 1017.6
20260508065420 43 0 0.0 0.0 0.00 0.07 0.00 93 1017.6
20260508065220 43 0 0.0 0.0 0.00 0.07 0.00 93 1017.7
20260508065020 43 0 0.0 0.0 0.00 0.07 0.00 93 1017.7
20260508064821 43 0 0.0 0.0 0.00 0.07 0.00 93 1017.7
20260508064620 43 0 0.0 0.0 0.00 0.07 0.00 93 1017.8
20260508064421 43 0 0.0 0.0 0.00 0.07 0.00 93 1017.8
20260508064242 43 0 0.0 0.0 0.00 0.07 0.00 93 1017.8
20260508064020 43 0 0.0 0.0 0.00 0.07 0.00 92 1017.7
20260508063841 43 0 0.0 0.0 0.00 0.07 0.00 92 1017.8
20260508063641 43 0 0.0 0.0 0.00 0.07 0.00 92 1017.8
20260508063421 43 0 0.0 0.0 0.00 0.07 0.00 92 1017.7
20260508063242 43 0 0.0 0.0 0.00 0.07 0.00 92 1017.7
20260508063020 43 0 0.0 0.0 0.00 0.07 0.00 92 1017.7
20260508062822 43 0 0.0 0.0 0.00 0.07 0.00 92 1017.7
20260508062621 43 0 0.0 0.0 0.00 0.07 0.00 92 1017.7
20260508062420 43 0 0.0 0.0 0.00 0.07 0.00 92 1017.6
20260508062220 44 0 0.0 0.0 0.00 0.07 0.00 92 1017.6
20260508062020 44 0 0.0 0.0 0.00 0.07 0.00 92 1017.7
20260508061842 44 0 0.0 0.0 0.00 0.07 0.00 92 1017.7
20260508061643 44 0 0.0 0.0 0.00 0.07 0.00 92 1017.7
20260508061420 44 0 0.0 0.0 0.00 0.07 0.00 92 1017.7
20260508061222 44 0 0.0 0.0 0.00 0.07 0.00 92 1017.7
20260508061021 44 0 0.0 0.0 0.00 0.07 0.00 92 1017.7
20260508060821 44 0 0.0 0.0 0.00 0.07 0.00 92 1017.7
20260508060641 44 0 0.0 0.0 0.00 0.07 0.00 91 1017.8
20260508060420 44 0 0.0 0.0 0.00 0.07 0.00 91 1017.8
20260508060220 44 0 0.0 0.0 0.00 0.07 0.00 91 1017.9
20260508060021 44 0 0.0 0.0 0.00 0.07 0.00 91 1017.9
20260508055842 44 0 0.0 0.0 0.00 0.07 0.00 91 1017.8
20260508055620 44 0 0.0 0.0 0.00 0.07 0.00 91 1017.8
20260508055420 44 0 0.0 0.0 0.00 0.07 0.00 91 1017.7
20260508055220 44 0 0.0 0.0 0.00 0.07 0.00 91 1017.8
20260508055021 44 0 0.0 0.0 0.00 0.07 0.00 91 1017.7
20260508054842 44 0 0.0 0.0 0.00 0.07 0.00 91 1017.8
20260508054621 44 0 0.0 0.0 0.00 0.07 0.00 91 1017.8
20260508054420 44 0 0.0 0.0 0.00 0.07 0.00 91 1017.8
20260508054220 44 0 0.0 0.0 0.00 0.07 0.00 91 1017.7
20260508054020 44 0 0.0 0.0 0.00 0.08 0.00 91 1017.8
20260508053820 44 0 0.0 0.0 0.00 0.08 0.00 91 1017.8
20260508053620 44 0 0.0 0.0 0.00 0.08 0.00 90 1017.8
20260508053420 44 0 0.0 0.0 0.00 0.08 0.00 90 1017.7
20260508053220 44 0 0.0 0.0 0.00 0.08 0.00 90 1017.8
20260508053041 44 0 0.0 0.0 0.00 0.08 0.00 89 1017.8
20260508052820 44 0 0.0 0.0 0.00 0.08 0.00 89 1017.8
20260508052620 44 0 0.0 0.0 0.00 0.08 0.00 89 1017.8
20260508052420 44 0 0.0 0.0 0.00 0.08 0.00 89 1017.8
20260508052220 44 0 0.0 0.0 0.00 0.08 0.00 89 1017.8
20260508052020 44 0 0.0 0.0 0.00 0.08 0.00 89 1017.8
20260508051820 44 0 0.0 0.0 0.00 0.08 0.00 89 1017.8
20260508051622 44 0 0.0 0.0 0.00 0.08 0.00 90 1017.8
20260508051420 44 0 0.0 0.0 0.00 0.08 0.00 89 1017.9
20260508051220 45 0 0.0 0.0 0.00 0.08 0.00 89 1017.9
20260508051020 45 0 0.0 0.0 0.00 0.08 0.00 89 1017.9
20260508050820 45 0 0.0 0.0 0.00 0.08 0.00 89 1017.8
20260508050620 45 0 0.0 0.0 0.00 0.08 0.00 88 1017.8
20260508050421 45 0 0.0 0.0 0.00 0.08 0.00 88 1017.8
20260508050220 45 0 0.0 0.0 0.00 0.08 0.00 88 1017.8
20260508050021 45 0 0.0 0.0 0.00 0.08 0.00 88 1017.8
20260508045820 45 0 0.0 0.0 0.00 0.08 0.08 88 1017.8
20260508045620 45 0 0.0 0.0 0.00 0.08 0.08 88 1017.7
20260508045420 45 0 0.0 0.0 0.00 0.08 0.08 88 1017.7
20260508045220 45 0 0.0 0.0 0.00 0.08 0.08 88 1017.7
20260508045020 45 0 0.0 0.0 0.00 0.08 0.08 88 1017.8
20260508044820 45 0 0.0 0.0 0.00 0.08 0.08 88 1017.8
20260508044620 46 0 0.0 0.0 0.00 0.08 0.08 89 1017.8
20260508044420 46 0 0.0 0.0 0.00 0.08 0.08 89 1017.8
20260508044220 46 0 0.0 0.0 0.00 0.08 0.08 89 1017.9
20260508044021 46 0 0.0 0.0 0.00 0.08 0.08 89 1017.9
20260508043841 46 0 0.0 0.0 0.00 0.08 0.08 88 1017.9
20260508043641 46 0 0.0 0.0 0.00 0.08 0.08 88 1017.9
20260508043421 46 0 0.0 0.0 0.00 0.08 0.08 88 1017.9
20260508043221 46 0 0.0 0.0 0.00 0.08 0.08 87 1017.9
20260508043021 46 0 0.0 0.0 0.00 0.08 0.08 87 1017.9
20260508042842 46 0 0.0 0.0 0.00 0.08 0.08 87 1018.0
20260508042620 46 0 0.0 0.0 0.00 0.08 0.08 87 1018.0
20260508042420 46 0 0.0 0.0 0.00 0.08 0.08 87 1018.0
20260508042220 46 0 0.0 0.0 0.00 0.08 0.08 87 1018.0
20260508042021 46 0 0.0 0.0 0.00 0.08 0.08 87 1018.0
20260508041820 46 0 0.0 0.0 0.00 0.08 0.08 87 1017.9
20260508041621 46 0 0.0 0.0 0.00 0.08 0.08 87 1017.9
20260508041420 47 0 0.0 0.0 0.00 0.08 0.08 87 1018.0
20260508041220 47 0 0.0 0.0 0.00 0.08 0.08 86 1018.0
20260508041020 47 0 0.0 0.0 0.00 0.08 0.08 86 1017.9
20260508040820 47 0 0.0 0.0 0.00 0.08 0.08 86 1018.0
20260508040620 47 0 0.0 0.0 0.00 0.08 0.08 87 1018.0
20260508040420 47 0 0.0 0.0 0.00 0.08 0.08 87 1017.9
20260508040220 47 0 0.0 0.0 0.00 0.08 0.08 87 1017.9
20260508040020 47 0 0.0 0.0 0.00 0.08 0.08 87 1017.9
20260508035820 47 0 0.0 0.0 0.00 0.08 0.08 86 1017.9
20260508035620 47 0 0.0 0.0 0.00 0.08 0.08 86 1017.8
20260508035422 47 0 0.0 0.0 0.00 0.08 0.08 86 1017.8
20260508035221 48 0 0.0 0.0 0.00 0.08 0.08 86 1017.8
20260508035020 48 0 0.0 0.0 0.00 0.08 0.08 86 1017.8
20260508034820 48 0 0.0 0.0 0.00 0.09 0.08 85 1017.8
20260508034622 48 0 0.0 0.0 0.00 0.09 0.08 85 1017.7
20260508034420 48 0 0.0 0.0 0.00 0.09 0.08 85 1017.7
20260508034220 48 0 0.0 0.0 0.00 0.09 0.08 84 1017.7
20260508034021 48 0 0.0 0.0 0.00 0.09 0.08 84 1017.7
20260508033820 48 0 0.0 0.0 0.00 0.09 0.08 83 1017.7
20260508033641 48 0 0.0 0.0 0.00 0.09 0.08 83 1017.7
20260508033421 48 0 0.0 0.0 0.00 0.09 0.08 83 1017.7
20260508033221 48 0 0.0 0.0 0.00 0.09 0.08 84 1017.7
20260508033020 49 0 0.0 0.0 0.00 0.09 0.08 83 1017.7
20260508032820 49 0 0.0 0.0 0.00 0.09 0.08 83 1017.7
20260508032621 49 0 0.0 0.0 0.00 0.09 0.08 83 1017.7
20260508032421 49 0 0.0 0.0 0.00 0.09 0.08 83 1017.6
20260508032221 49 0 0.0 0.0 0.00 0.09 0.08 83 1017.6
20260508032042 49 0 0.0 0.0 0.00 0.09 0.08 83 1017.5
20260508031821 49 0 0.0 0.0 0.00 0.09 0.08 83 1017.6
20260508031620 49 0 0.0 0.0 0.00 0.09 0.08 83 1017.5
20260508031421 49 0 0.0 0.0 0.00 0.09 0.08 83 1017.5
20260508031220 49 0 0.0 0.0 0.00 0.09 0.08 83 1017.5
20260508031020 49 0 0.0 0.0 0.00 0.09 0.08 83 1017.5
20260508030821 49 0 0.0 0.0 0.00 0.09 0.08 82 1017.5
20260508030621 49 0 0.0 0.0 0.00 0.09 0.08 81 1017.5
20260508030421 49 0 0.0 0.0 0.00 0.09 0.08 81 1017.5
20260508030242 49 0 0.0 0.0 0.00 0.09 0.08 81 1017.5
20260508030020 49 0 0.0 0.0 0.00 0.09 0.08 80 1017.5
20260508025820 49 0 0.0 0.0 0.00 0.09 0.08 79 1017.4
20260508025620 49 0 0.0 0.0 0.00 0.09 0.08 79 1017.4
20260508025421 49 0 0.0 0.0 0.00 0.09 0.08 79 1017.4
20260508025220 50 0 0.0 0.0 0.00 0.09 0.08 79 1017.5
20260508025021 50 0 0.0 0.0 0.00 0.09 0.08 79 1017.5
20260508024820 50 0 0.0 0.0 0.00 0.09 0.08 78 1017.4
20260508024620 50 0 0.0 0.0 0.00 0.09 0.08 78 1017.4
20260508024420 50 0 0.0 0.0 0.00 0.09 0.08 77 1017.4
20260508024221 50 0 0.0 0.0 0.00 0.09 0.08 77 1017.4
20260508024022 50 0 0.0 0.0 0.00 0.09 0.08 77 1017.5
20260508023821 51 0 0.0 0.0 0.00 0.09 0.08 77 1017.5
20260508023621 51 0 0.0 0.0 0.00 0.09 0.08 75 1017.5
20260508023421 51 0 0.0 0.0 0.00 0.09 0.08 75 1017.6
20260508023221 51 0 0.0 0.0 0.00 0.09 0.08 75 1017.6
20260508023042 51 0 0.0 0.0 0.00 0.09 0.08 75 1017.7
20260508022821 52 0 0.0 0.0 0.00 0.09 0.08 74 1017.7
20260508022620 52 0 0.0 0.0 0.00 0.09 0.08 74 1017.7
20260508022441 52 0 0.0 0.0 0.00 0.09 0.08 74 1017.6
20260508022220 52 0 0.0 0.0 0.00 0.09 0.08 73 1017.7
20260508022020 52 0 0.0 0.0 0.00 0.09 0.08 73 1017.6
20260508021841 52 0 0.0 0.0 0.00 0.09 0.08 73 1017.6
20260508021621 53 0 0.0 0.0 0.00 0.09 0.08 74 1017.6
20260508021420 53 0 0.0 0.0 0.00 0.09 0.08 74 1017.6
20260508021220 53 0 0.0 0.0 0.00 0.09 0.08 73 1017.5
20260508021020 53 0 0.0 0.0 0.00 0.09 0.08 73 1017.5
20260508020821 53 0 0.0 0.0 0.00 0.10 0.08 72 1017.5
20260508020621 53 0 0.0 0.0 0.00 0.10 0.08 72 1017.4
20260508020420 53 0 0.0 0.0 0.00 0.10 0.08 71 1017.4
20260508020242 53 0 0.0 0.0 0.00 0.10 0.08 71 1017.4
20260508020021 53 0 0.0 0.0 0.00 0.10 0.08 71 1017.4
20260508015821 54 0 0.0 0.0 0.00 0.10 0.08 70 1017.3
20260508015620 54 0 0.0 0.0 0.00 0.10 0.08 69 1017.3
20260508015420 54 0 0.0 0.0 0.00 0.10 0.08 68 1017.2
20260508015221 54 0 0.0 0.0 0.00 0.10 0.08 67 1017.1
20260508015042 54 0 0.0 0.0 0.00 0.10 0.08 67 1017.1
20260508014820 54 0 0.0 0.0 0.00 0.10 0.08 66 1017.0
20260508014620 54 0 0.0 0.0 0.00 0.10 0.08 66 1017.0
20260508014420 55 0 0.0 0.0 0.00 0.10 0.08 65 1017.1
20260508014221 55 0 0.0 0.0 0.00 0.10 0.08 65 1017.0
20260508014021 55 0 0.0 0.0 0.00 0.10 0.08 64 1016.9
20260508013821 55 0 0.0 0.0 0.00 0.10 0.08 63 1016.9
20260508013642 55 0 0.0 0.0 0.00 0.10 0.08 62 1016.9
20260508013421 55 0 0.0 0.0 0.00 0.10 0.08 62 1016.9
20260508013221 56 0 0.0 0.0 0.00 0.10 0.08 62 1017.0
20260508013021 56 0 0.0 0.0 0.00 0.10 0.08 61 1016.9
20260508012821 56 0 0.0 0.0 0.00 0.10 0.08 61 1016.9
20260508012620 56 0 0.0 0.0 0.00 0.10 0.08 61 1016.9
20260508012420 56 0 0.0 0.0 0.00 0.10 0.08 60 1016.8
20260508012221 56 0 0.0 0.0 0.00 0.10 0.08 60 1016.9
20260508012020 56 0 0.0 0.0 0.00 0.10 0.08 60 1016.9
20260508011820 56 0 0.0 0.0 0.00 0.10 0.08 60 1016.9
20260508011620 56 0 0.0 0.0 0.00 0.10 0.08 60 1016.8
20260508011421 56 0 0.0 0.0 0.00 0.10 0.08 59 1016.8
20260508011221 56 0 0.0 0.0 0.00 0.10 0.08 59 1016.8
20260508011042 56 0 0.0 0.0 0.00 0.10 0.08 59 1016.7
20260508010842 57 0 0.0 0.0 0.00 0.10 0.08 59 1016.7
20260508010620 57 0 0.0 0.0 0.00 0.10 0.08 59 1016.8
20260508010421 57 0 0.0 0.0 0.00 0.10 0.08 59 1016.7
20260508010242 57 0 0.0 0.0 0.00 0.10 0.08 59 1016.7
20260508010021 57 0 0.0 0.0 0.00 0.10 0.08 59 1016.6
20260508005821 57 0 0.0 0.0 0.00 0.10 0.08 59 1016.6
20260508005621 57 0 0.0 0.0 0.00 0.10 0.08 59 1016.6
20260508005443 57 0 0.0 0.0 0.00 0.10 0.08 58 1016.5
20260508005221 57 0 0.0 0.0 0.00 0.10 0.08 58 1016.5
20260508005020 58 0 0.0 0.0 0.00 0.10 0.08 58 1016.4
20260508004842 58 0 0.0 0.0 0.00 0.10 0.08 57 1016.4
20260508004621 58 0 0.0 0.0 0.00 0.10 0.08 56 1016.4
20260508004442 58 0 0.0 0.0 0.00 0.10 0.08 56 1016.4
20260508004221 58 0 0.0 0.0 0.00 0.10 0.08 56 1016.4
20260508004021 59 0 0.0 0.0 0.00 0.10 0.08 56 1016.4
20260508003821 59 0 0.0 0.0 0.00 0.10 0.08 56 1016.4
20260508003621 59 0 0.0 0.0 0.00 0.10 0.08 56 1016.4
20260508003420 59 0 0.0 0.0 0.00 0.10 0.08 55 1016.4
20260508003221 59 274 0.0 1.0 0.00 0.11 0.08 55 1016.4
20260508003042 60 274 0.0 1.0 0.00 0.11 0.08 55 1016.3
20260508002821 60 274 0.0 1.0 0.00 0.11 0.08 55 1016.3
20260508002621 60 274 0.0 1.0 0.00 0.11 0.08 55 1016.2
20260508002421 60 274 0.0 1.0 0.00 0.11 0.08 54 1016.2
20260508002221 60 274 0.0 1.0 0.00 0.11 0.08 53 1016.2
20260508002042 60 274 0.0 1.0 0.00 0.11 0.08 53 1016.2
20260508001843 61 274 0.0 1.0 0.00 0.11 0.08 52 1016.1
20260508001621 61 274 0.0 1.0 0.00 0.11 0.08 52 1016.1
20260508001421 61 275 0.0 1.0 0.00 0.11 0.08 51 1016.1
20260508001221 61 311 0.0 2.0 0.00 0.11 0.08 51 1016.1
20260508001042 61 311 0.0 2.0 0.00 0.11 0.08 51 1016.1
20260508000841 61 311 0.0 2.0 0.00 0.11 0.08 50 1016.1
20260508000642 61 311 0.0 2.0 0.00 0.11 0.08 49 1016.1
20260508000420 61 14 0.0 2.0 0.00 0.11 0.08 50 1016.1
20260508000220 61 40 0.0 1.0 0.00 0.11 0.08 50 1016.1
20260508000021 61 27 0.0 2.0 0.00 0.11 0.08 50 1016.1
20260507235821 62 352 0.0 2.0 0.00 0.11 0.08 50 1016.1
20260507235621 62 294 0.0 3.0 0.00 0.11 0.08 49 1016.1
20260507235421 62 289 0.0 3.0 0.00 0.11 0.08 48 1016.1
20260507235221 62 290 0.0 3.0 0.00 0.11 0.08 48 1016.0
20260507235020 62 285 0.0 3.0 0.00 0.11 0.08 49 1016.0
20260507234820 62 281 1.0 3.0 0.00 0.11 0.08 47 1016.0
20260507234621 62 281 1.0 3.0 0.00 0.11 0.08 49 1016.0
20260507234442 62 283 1.0 3.0 0.00 0.11 0.08 49 1016.0
20260507234221 62 282 1.0 3.0 0.00 0.11 0.08 48 1016.0
20260507234021 62 283 1.0 3.0 0.00 0.11 0.08 47 1016.0
20260507233821 62 283 1.0 3.0 0.00 0.11 0.08 47 1015.9
20260507233643 62 282 1.0 4.0 0.00 0.11 0.08 48 1015.9
20260507233421 63 280 1.0 4.0 0.00 0.11 0.08 48 1015.8
20260507233221 63 282 1.0 5.0 0.00 0.11 0.08 47 1015.8
20260507233021 63 279 1.0 5.0 0.00 0.11 0.08 49 1015.8
20260507232821 63 283 1.0 5.0 0.00 0.11 0.08 48 1015.8
20260507232620 63 285 1.0 5.0 0.00 0.11 0.08 48 1015.8
20260507232420 63 287 1.0 5.0 0.00 0.11 0.08 48 1015.8
20260507232220 63 286 1.0 5.0 0.00 0.11 0.08 47 1015.9
20260507232021 63 287 1.0 5.0 0.00 0.11 0.08 47 1015.9
20260507231821 63 282 1.0 4.0 0.00 0.11 0.08 48 1015.9
20260507231620 63 281 1.0 4.0 0.00 0.11 0.08 48 1015.9
20260507231441 63 281 1.0 4.0 0.00 0.11 0.08 47 1015.9
20260507231221 63 280 1.0 4.0 0.00 0.11 0.08 47 1016.0
20260507231020 63 283 1.0 4.0 0.00 0.11 0.08 47 1016.1
20260507230821 63 284 1.0 4.0 0.00 0.11 0.08 47 1016.1
20260507230621 63 283 1.0 4.0 0.00 0.11 0.08 48 1016.1
20260507230421 64 282 1.0 4.0 0.00 0.11 0.08 47 1016.1
20260507230221 64 282 1.0 4.0 0.00 0.11 0.08 48 1016.1
20260507230042 64 278 1.0 4.0 0.00 0.12 0.08 47 1016.2
20260507225821 64 281 1.0 4.0 0.00 0.12 0.08 48 1016.2
20260507225642 64 284 1.0 4.0 0.00 0.12 0.08 47 1016.2
20260507225421 64 283 1.0 4.0 0.00 0.12 0.08 47 1016.2
20260507225221 64 285 1.0 4.0 0.00 0.12 0.08 47 1016.3
20260507225020 64 287 1.0 4.0 0.00 0.12 0.08 47 1016.2
20260507224821 64 288 1.0 4.0 0.00 0.12 0.08 47 1016.2
20260507224621 64 289 1.0 4.0 0.00 0.12 0.08 46 1016.3
20260507224421 64 292 1.0 4.0 0.00 0.12 0.08 48 1016.3
20260507224242 64 289 1.0 4.0 0.00 0.12 0.08 47 1016.2
20260507224020 64 289 1.0 4.0 0.00 0.12 0.08 48 1016.2
20260507223821 64 283 1.0 3.0 0.00 0.12 0.08 48 1016.2
20260507223620 64 286 1.0 4.0 0.00 0.12 0.08 47 1016.2
20260507223421 64 284 1.0 4.0 0.00 0.12 0.08 47 1016.2
20260507223220 64 303 1.0 4.0 0.00 0.12 0.08 47 1016.2
20260507223042 64 307 1.0 4.0 0.00 0.12 0.08 47 1016.1
20260507222821 64 314 1.0 4.0 0.00 0.12 0.08 48 1016.2
20260507222621 64 307 1.0 4.0 0.00 0.12 0.08 48 1016.1
20260507222421 64 299 1.0 4.0 0.00 0.12 0.08 47 1016.2
20260507222241 64 285 1.0 5.0 0.00 0.12 0.08 47 1016.1
20260507222021 64 295 1.0 5.0 0.00 0.12 0.08 48 1016.1
20260507221821 64 296 1.0 5.0 0.00 0.12 0.08 47 1016.1
20260507221621 64 299 1.0 5.0 0.00 0.12 0.08 47 1016.1
20260507221421 64 326 1.0 5.0 0.00 0.12 0.08 48 1016.1
20260507221222 64 19 1.0 4.0 0.00 0.12 0.08 47 1016.1
20260507221041 64 286 1.0 4.0 0.00 0.12 0.08 49 1016.1
20260507220821 64 286 1.0 4.0 0.00 0.12 0.08 49 1016.1
20260507220621 64 286 1.0 4.0 0.00 0.12 0.08 49 1016.0